Date String (YYYY-MM-DD hh:mm:ss) UTC,Instrument flags,absolute air pressure of the measurement (hPa),sample flow rate (lpm),inlet stack bypass flow (lpm),air temperature of the measurement (°C),ambient temperature measured by the external sensor (°C),aerosol sample conditioner tube jacket temperature (°C),OPC LED temperature (°C),internal box temperature (°C),relative humidity of the measurement (%),span deviation,mass concentration of particles derived from Lorenz-Mie calculation of OPC scattering (μg/m³),mass concentration of particles derived from Lorenz-Mie calculation of OPC scattering (μg/m³),mass concentration of particles derived from Lorenz-Mie calculation of OPC scattering (μg/m³)
DateTimeUTC,F1_M11,P_M11,Q1_M11,Q2_M11,T1_M11,T2_M11,T3_M11,T4_M11,T5_M11,U1_M11,ZSPAN_M11,X0_M11,X2_M11,X1_M11
2024-05-05 02:00:00,SystemResetWarning,0825.6,5.00,000.00,024.8,022.0,000.0,033.6,025.6,019.0,0000.0,0016.00,0004.26,0002.91
2024-05-05 02:01:00,SystemResetWarning,0825.7,4.99,000.00,024.7,022.3,000.0,033.4,025.8,019.2,0000.0,0016.35,0004.27,0002.88
2024-05-05 02:02:00,SystemResetWarning,0825.6,5.00,000.00,024.7,022.7,000.0,033.3,026.1,019.2,0000.0,0016.88,0004.27,0002.85
2024-05-05 02:03:00,SystemResetWarning,0825.6,5.01,000.00,024.7,023.1,000.0,033.2,026.3,019.1,0000.0,0015.98,0004.22,0002.81
2024-05-05 02:04:00,SystemResetWarning,0825.6,5.02,000.00,024.8,023.4,000.0,033.2,026.4,019.1,0000.0,0014.69,0004.20,0002.77
2024-05-05 02:05:00,SystemResetWarning,0825.6,5.00,000.00,024.8,023.7,000.0,033.2,026.6,019.1,0000.0,0014.67,0004.22,0002.74
2024-05-05 02:06:00,SystemResetWarning,0825.5,5.00,000.00,024.9,023.9,000.0,033.2,026.7,019.0,0000.0,0014.72,0004.18,0002.72
2024-05-05 02:07:00,SystemResetWarning,0825.6,5.00,000.00,024.9,024.1,000.0,033.2,026.8,019.0,0000.0,0016.39,0004.16,0002.73
2024-05-05 02:08:00,SystemResetWarning,0825.6,5.01,000.00,025.0,024.3,000.0,033.2,026.8,018.9,0000.0,0017.30,0004.21,0002.74
2024-05-05 02:09:00,SystemResetWarning,0825.5,4.99,000.00,025.1,024.4,000.0,033.2,026.9,018.8,0000.0,0017.22,0004.17,0002.75
2024-05-05 02:10:00,SystemResetWarning,0825.6,5.01,000.00,025.1,024.6,000.0,033.2,027.0,018.7,0000.0,0017.18,0004.11,0002.74
2024-05-05 02:11:00,SystemResetWarning,0825.6,5.01,000.00,025.2,024.7,000.0,033.3,027.1,018.6,0000.0,0017.96,0004.10,0002.75
2024-05-05 02:12:00,SystemResetWarning,0825.6,4.99,000.00,025.3,024.8,000.0,033.3,027.1,018.6,0000.0,0018.27,0004.09,0002.77
2024-05-05 02:13:00,SystemResetWarning,0825.6,4.99,000.00,025.3,024.9,000.0,033.3,027.2,018.5,0000.0,0017.86,0004.08,0002.75
2024-05-05 02:14:00,SystemResetWarning,0825.6,5.00,000.00,025.4,025.0,000.0,033.4,027.3,018.4,0000.0,0018.49,0004.10,0002.73
2024-05-05 02:15:00,SystemResetWarning,0825.7,5.00,000.00,025.4,025.1,000.0,033.4,027.3,018.3,0000.0,0020.38,0004.12,0002.73
2024-05-05 02:16:00,SystemResetWarning,0825.6,5.00,000.00,025.5,024.8,000.0,033.5,027.1,018.3,0000.0,0021.61,0004.12,0002.74
2024-05-05 02:17:00,SystemResetWarning,0825.6,5.00,000.00,025.2,022.7,000.0,033.5,026.0,018.8,0000.0,0021.82,0004.16,0002.75
2024-05-05 02:18:00,SystemResetWarning,0825.5,5.01,000.00,024.8,022.0,000.0,033.5,025.6,019.3,0000.0,0020.35,0004.16,0002.75
2024-05-05 02:19:00,SystemResetWarning,0825.5,5.00,000.00,024.7,022.3,000.0,033.4,025.7,019.5,0000.0,0019.47,0004.13,0002.77
2024-05-05 02:20:00,SystemResetWarning,0825.6,4.99,000.00,024.7,022.6,000.0,033.3,026.0,019.6,0000.0,0020.48,0004.21,0002.78
2024-05-05 02:21:00,SystemResetWarning,0825.6,5.00,000.00,024.7,023.0,000.0,033.2,026.2,019.6,0000.0,0019.84,0004.28,0002.80
2024-05-05 02:22:00,SystemResetWarning,0825.6,5.01,000.00,024.8,023.3,000.0,033.2,026.4,019.6,0000.0,0018.55,0004.31,0002.80
2024-05-05 02:23:00,SystemResetWarning,0825.6,5.00,000.00,024.8,023.6,000.0,033.2,026.5,019.7,0000.0,0018.80,0004.31,0002.82
2024-05-05 02:24:00,SystemResetWarning,0825.6,4.98,000.00,024.9,023.9,000.0,033.1,026.6,019.7,0000.0,0019.03,0004.30,0002.85
2024-05-05 02:25:00,SystemResetWarning,0825.7,5.00,000.00,024.9,024.1,000.0,033.2,026.7,020.1,0000.0,0018.83,0004.31,0002.88
2024-05-05 02:26:00,SystemResetWarning,0825.7,5.02,000.00,025.0,024.2,000.0,033.2,026.8,020.4,0000.0,0018.48,0004.34,0002.94
2024-05-05 02:27:00,SystemResetWarning,0825.7,4.99,000.00,025.1,024.4,000.0,033.2,026.9,020.2,0000.0,0017.46,0004.35,0003.00
2024-05-05 02:28:00,SystemResetWarning,0825.7,4.99,000.00,025.1,024.5,000.0,033.2,027.0,020.1,0000.0,0017.25,0004.34,0003.05
2024-05-05 02:29:00,SystemResetWarning,0825.7,5.01,000.00,025.2,024.6,000.0,033.2,027.0,020.1,0000.0,0016.86,0004.33,0003.09
2024-05-05 02:30:00,SystemResetWarning,0825.8,5.01,000.00,025.2,024.7,000.0,033.2,027.1,020.1,0000.0,0016.87,0004.34,0003.10
2024-05-05 02:31:00,SystemResetWarning,0825.7,5.01,000.00,025.3,024.8,000.0,033.3,027.1,020.1,0000.0,0015.95,0004.31,0003.11
2024-05-05 02:32:00,SystemResetWarning,0825.7,5.01,000.00,025.3,024.8,000.0,033.3,027.2,020.1,0000.0,0015.19,0004.27,0003.13
2024-05-05 02:33:00,SystemResetWarning,0825.8,5.00,000.00,025.4,024.9,000.0,033.4,027.2,020.1,0000.0,0015.01,0004.24,0003.16
2024-05-05 02:34:00,SystemResetWarning,0825.7,5.00,000.00,025.4,025.0,000.0,033.4,027.3,020.1,0000.0,0015.67,0004.24,0003.17
2024-05-05 02:35:00,SystemResetWarning,0825.8,4.99,000.00,025.4,024.8,000.0,033.4,027.2,019.8,0000.0,0015.47,0004.29,0003.19
2024-05-05 02:36:00,SystemResetWarning,0825.7,4.99,000.00,025.2,022.8,000.0,033.5,026.1,020.2,0000.0,0015.23,0004.27,0003.21
2024-05-05 02:37:00,SystemResetWarning,0825.6,5.01,000.00,024.7,021.7,000.0,033.5,025.4,020.8,0000.0,0014.03,0004.27,0003.21
2024-05-05 02:38:00,SystemResetWarning,0825.6,5.01,000.00,024.5,021.9,000.0,033.4,025.4,020.9,0000.0,0013.94,0004.34,0003.20
2024-05-05 02:39:00,SystemResetWarning,0825.7,4.99,000.00,024.5,022.3,000.0,033.3,025.7,021.2,0000.0,0013.93,0004.35,0003.19
2024-05-05 02:40:00,SystemResetWarning,0825.7,4.99,000.00,024.5,022.6,000.0,033.2,026.0,021.1,0000.0,0015.17,0004.35,0003.20
2024-05-05 02:41:00,SystemResetWarning,0825.7,5.00,000.00,024.6,023.0,000.0,033.1,026.1,021.0,0000.0,0016.13,0004.35,0003.21
2024-05-05 02:42:00,SystemResetWarning,0825.8,5.01,000.00,024.6,023.2,000.0,033.0,026.3,020.8,0000.0,0015.90,0004.34,0003.21
2024-05-05 02:43:00,SystemResetWarning,0825.8,5.00,000.00,024.6,023.5,000.0,033.0,026.3,020.6,0000.0,0016.34,0004.38,0003.21
2024-05-05 02:44:00,SystemResetWarning,0825.8,4.99,000.00,024.7,023.7,000.0,033.0,026.5,020.7,0000.0,0016.97,0004.43,0003.21
2024-05-05 02:45:00,SystemResetWarning,0825.8,4.99,000.00,024.7,023.8,000.0,033.0,026.5,021.0,0000.0,0016.84,0004.45,0003.22
2024-05-05 02:46:00,SystemResetWarning,0825.9,5.02,000.00,024.8,024.0,000.0,033.0,026.6,020.7,0000.0,0015.20,0004.50,0003.23
2024-05-05 02:47:00,SystemResetWarning,0825.8,5.01,000.00,024.8,024.1,000.0,033.0,026.7,020.5,0000.0,0014.93,0004.48,0003.23
2024-05-05 02:48:00,SystemResetWarning,0825.8,5.00,000.00,024.9,024.2,000.0,033.0,026.7,020.8,0000.0,0015.11,0004.50,0003.24
2024-05-05 02:49:00,SystemResetWarning,0825.8,5.00,000.00,024.9,024.3,000.0,033.0,026.8,020.8,0000.0,0015.59,0004.45,0003.24
2024-05-05 02:50:00,SystemResetWarning,0825.8,5.00,000.00,025.0,024.4,000.0,033.1,026.8,020.5,0000.0,0016.31,0004.45,0003.26
2024-05-05 02:51:00,SystemResetWarning,0825.8,5.00,000.00,025.0,024.5,000.0,033.1,026.9,020.7,0000.0,0016.42,0004.45,0003.27
2024-05-05 02:52:00,SystemResetWarning,0825.8,5.00,000.00,025.1,024.5,000.0,033.1,026.9,020.8,0000.0,0015.32,0004.46,0003.27
2024-05-05 02:53:00,SystemResetWarning,0825.8,5.00,000.00,025.1,024.6,000.0,033.1,027.0,020.9,0000.0,0015.90,0004.49,0003.28
2024-05-05 02:54:00,SystemResetWarning,0825.8,5.00,000.00,025.1,024.6,000.0,033.2,027.0,020.8,0000.0,0016.32,0004.49,0003.30
2024-05-05 02:55:00,SystemResetWarning,0825.8,5.00,000.00,025.2,024.7,000.0,033.2,027.1,020.4,0000.0,0015.46,0004.49,0003.30
2024-05-05 02:56:00,SystemResetWarning,0825.8,5.00,000.00,025.2,024.7,000.0,033.2,027.1,020.2,0000.0,0015.06,0004.46,0003.30
2024-05-05 02:57:00,SystemResetWarning,0825.8,5.00,000.00,025.2,024.8,000.0,033.2,027.1,019.8,0000.0,0014.25,0004.41,0003.29
2024-05-05 02:58:00,SystemResetWarning,0825.9,5.00,000.00,025.3,024.8,000.0,033.3,027.1,020.1,0000.0,0014.78,0004.46,0003.29
2024-05-05 02:59:00,SystemResetWarning,0825.9,5.00,000.00,025.3,024.8,000.0,033.3,027.2,020.1,0000.0,0014.64,0004.40,0003.29
